New Bedford, MA

6:39 PM EDT on August 31, 2016 (GMT -0400)
New Bedford Regional

Weather History for KEWB - October, 2010

Change the Weather History Date:

Saturday, October 9, 2010

  Actual Average Record
Temperature  
Mean Temperature 52 °F -  
Max Temperature 66 °F 65 °F 86 °F (2011)
Min Temperature 37 °F 49 °F 28 °F (2001)
Degree Days  
Heating Degree Days 14    
Growing Degree Days 2 (Base 50)    
Moisture  
Dew Point 39 °F    
Average Humidity 62    
Maximum Humidity 96    
Minimum Humidity 27    
Precipitation  
Precipitation 0.00 in - - ()
Sea Level Pressure  
Sea Level Pressure 29.85 in    
Wind  
Wind Speed 4 mph (NW)    
Max Wind Speed 10 mph    
Max Gust Speed 25 mph    
Visibility 10 miles    
Events      
Averages and records for this station are not official NWS values.
T = Trace of Precipitation, MM = Missing Value Source: NWS Daily Summary

Daily Weather History Graph

Daily Weather History Graph

Search for Another Location

Airport or City:

Trip Planner

Search our weather history database for the weather conditions in past years. The results will help you decide how hot, cold, wet, or windy it might be!

Date:

Astronomy

Oct. 09, 2010 Rise Set
Actual Time 6:49 AM EDT 6:12 PM EDT
Civil Twilight 6:21 AM EDT 6:40 PM EDT
Nautical Twilight 5:49 AM EDT 7:12 PM EDT
Astronomical Twilight 5:16 AM EDT 7:44 PM EDT
Moon 9:09 AM EDT (10/9) 7:02 PM EDT (10/9)
Length of Visible Light 12h 18m
Length of Day
11h 23m
Waxing Crescent, 5% of the Moon is Illuminated
Oct 9
Waxing Crescent
Oct 14
First Quarter
Oct 22
Full
Oct 30
Last Quarter
Nov 6
New

Hourly Weather History & Observations

Time (EDT) Temp. Windchill Dew Point Humidity Pressure Visibility Wind Dir Wind Speed Gust Speed Precip Events Conditions
12:53 AM 61.0 °F - 46.0 °F 58% 29.75 in 5.0 mi West 8.1 mph - N/A   Haze
1:53 AM 59.0 °F - 46.0 °F 62% 29.77 in 10.0 mi North 4.6 mph - N/A   Clear
2:53 AM 53.1 °F - 46.9 °F 80% 29.76 in 10.0 mi Calm Calm - N/A   Clear
3:53 AM 50.0 °F - 46.0 °F 86% 29.77 in 10.0 mi Calm Calm - N/A   Clear
4:53 AM 48.0 °F - 45.0 °F 89% 29.79 in 10.0 mi Calm Calm - N/A   Clear
5:53 AM 46.0 °F 44.8 °F 43.0 °F 89% 29.80 in 10.0 mi SSW 3.5 mph - N/A   Clear
6:53 AM 44.1 °F - 43.0 °F 96% 29.81 in 10.0 mi Calm Calm - N/A   Clear
7:53 AM 51.1 °F - 46.9 °F 86% 29.83 in 10.0 mi Calm Calm - N/A   Clear
8:53 AM 59.0 °F - 45.0 °F 60% 29.85 in 10.0 mi NW 8.1 mph - N/A   Clear
9:53 AM 61.0 °F - 39.9 °F 46% 29.86 in 10.0 mi Variable 4.6 mph 18.4 mph N/A   Clear
10:53 AM 63.0 °F - 39.9 °F 43% 29.86 in 10.0 mi NNW 8.1 mph 16.1 mph N/A   Clear
11:53 AM 64.0 °F - 42.1 °F 45% 29.86 in 10.0 mi NNW 6.9 mph - N/A   Partly Cloudy
12:53 PM 66.0 °F - 36.0 °F 33% 29.84 in 10.0 mi NNW 8.1 mph 23.0 mph N/A   Clear
1:53 PM 64.9 °F - 30.9 °F 28% 29.84 in 10.0 mi NW 10.4 mph 25.3 mph N/A   Clear
2:53 PM 66.0 °F - 33.1 °F 29% 29.84 in 10.0 mi NW 9.2 mph 17.3 mph N/A   Clear
3:53 PM 64.9 °F - 30.0 °F 27% 29.84 in 10.0 mi West 10.4 mph 19.6 mph N/A   Clear
4:53 PM 64.9 °F - 30.0 °F 27% 29.85 in 10.0 mi Variable 3.5 mph - N/A   Clear
5:53 PM 61.0 °F - 35.1 °F 38% 29.86 in 10.0 mi Calm Calm - N/A   Clear
6:53 PM 51.1 °F - 39.0 °F 63% 29.88 in 10.0 mi Calm Calm - N/A   Clear
7:53 PM 46.0 °F - 39.9 °F 79% 29.90 in 10.0 mi Calm Calm - N/A   Clear
8:53 PM 45.0 °F - 37.0 °F 74% 29.92 in 10.0 mi Calm Calm - N/A   Clear
9:53 PM 39.9 °F - 36.0 °F 86% 29.94 in 10.0 mi Calm Calm - N/A   Clear
10:53 PM 37.9 °F - 36.0 °F 93% 29.95 in 10.0 mi Calm Calm - N/A   Clear
11:53 PM 43.0 °F 41.3 °F 33.1 °F 68% 29.97 in 10.0 mi North 3.5 mph - N/A   Clear